Find NATO 3B

NORAD ID: 9785 Int'l Des: 1977-005 Owner: NICS Country: I-NATO operational
HEOCIRCULAR

Current View

Loading 3D Globe...

About NATO 3B

NATO 3B (NORAD 9785) is a satellite by NICS of I-NATO. It operates in HEO, CIRCULAR orbit

About NATO 3B

Description loading...

Upcoming Passes

Passes for default location (London). Set your location on the main map for personalized predictions.

Altitude History

Loading altitude history...

Two-Line Element Set

1 9785U 77005A 26160.93185977 -.00000074 00000-0 00000+0 0 9993
2 9785 8.2217 311.1377 0041835 51.5162 330.9266 0.95269146116600
Epoch: Jun 9, 2026 • Age: 11 hours

Current Status

Altitude 37360.0 km
Velocity 3.02 km/s
Sub-Earth Point 0.10°N, 91.96°E
Type other

Most Searched